Flag for Ukraine Weather past 2 weeks in Odesa, Ukraine

Now
45 °F

Low clouds.


Feels Like: 37 °F
Forecast: 44 / 49 °F
Wind: 20 mph from East

Location: Odesa Airport

Current Time: Mar 28, 2015 at 4:48:56 PM

Latest Report: Mar 28, 2015 at 4:30 PM


Visibility: N/A

Pressure: 29.65 "Hg

Humidity: 93%

Dew point: 43 °F

Location of OdesaLocation

Historic Weather in Odesa — Graph

°F

Odesa temperature yesterday

Maximum temperature yesterday: 55 °F (at 7:00 PM)
Minimum temperature yesterday: 43 °F (at 2:00 AM)
Average temperature yesterday: 50 °F

Past Weeks' High & Low Weather Summary

 TemperatureHumidityPressure
High59 °F (Mar 22, 2:30 PM)100% (Mar 14, 3:00 AM)30.63 "Hg (Mar 14, 3:00 AM)
Low27 °F (Mar 24, 2:00 AM)22% (Mar 16, 5:30 PM)29.65 "Hg (Mar 28, 3:30 PM)
Average43 °F71%30.19 "Hg
* Reported Mar 13 3:00 PM — Mar 28 3:30 PM, Odesa, Weather by CustomWeather, © 2015

Note: Actual official high and low records may vary slightly from our data, if they occured in-between our weather recording intervals... More about our weather records

Advertising

Odesa weather history for previous 24 hours

 ConditionsComfort  
Time TempWeatherWind HumidityBarometerVisibility
3:30 PM
Sat, Mar 28
46 °FLight rain. Overcast.8 mph93%29.65 "HgN/A
3:00 PM46 °FLight rain. Mostly cloudy.10 mph93%29.68 "HgN/A
2:30 PM46 °FSprinkles. Broken clouds.13 mph93%29.68 "HgN/A
2:00 PM48 °FSprinkles. Broken clouds.13 mph87%29.68 "HgN/A
1:30 PM48 °FLight rain. More clouds than sun.10 mph82%29.68 "HgN/A
1:00 PM48 °FPassing clouds.10 mph82%29.71 "HgN/A
12:30 PM48 °FSprinkles. More clouds than sun.10 mph82%29.71 "HgN/A
12:00 PM48 °FPassing clouds.8 mph82%29.71 "HgN/A
11:30 AM48 °FPassing clouds.10 mph82%29.74 "HgN/A
11:00 AM46 °FPassing clouds.8 mph87%29.74 "HgN/A
10:30 AM46 °FPassing clouds.10 mph87%29.77 "HgN/A
10:00 AM46 °FSprinkles. More clouds than sun.6 mph87%29.77 "HgN/A
9:30 AM46 °FSprinkles. Overcast.8 mph82%29.77 "HgN/A
9:00 AM46 °FPassing clouds.8 mph82%29.77 "HgN/A
8:30 AM46 °FPassing clouds.10 mph82%29.77 "HgN/A
8:00 AM46 °FPassing clouds.8 mph82%29.77 "HgN/A
7:30 AM46 °FPassing clouds.8 mph82%29.74 "HgN/A
7:00 AM45 °FSunny.10 mph87%29.74 "Hg10 mi
6:30 AM45 °FPassing clouds.6 mph87%29.77 "HgN/A
5:30 AM45 °FClear.6 mph87%29.77 "Hg10 mi
5:00 AM45 °FPassing clouds.6 mph93%29.74 "HgN/A
4:30 AM43 °FClear.3 mph93%29.77 "Hg10 mi
4:00 AM45 °FClear.3 mph93%29.77 "Hg10 mi
3:30 AM45 °FClear.3 mph87%29.77 "Hg10 mi
3:00 AM45 °FClear.3 mph87%29.77 "Hg10 mi
2:30 AM43 °FClear.3 mph93%29.77 "Hg10 mi
2:00 AM45 °FClear.3 mph87%29.77 "Hg10 mi
1:30 AM45 °FClear.6 mph87%29.77 "Hg10 mi
1:00 AM45 °FPassing clouds.6 mph87%29.80 "HgN/A
12:30 AM48 °FPassing clouds.8 mph76%29.80 "HgN/A
12:00 AM50 °FPassing clouds.8 mph71%29.80 "HgN/A
11:30 PM
Fri, Mar 27
52 °FPassing clouds.3 mph62%29.80 "HgN/A
11:00 PM52 °FPassing clouds.6 mph62%29.80 "HgN/A
10:30 PM52 °FPassing clouds.6 mph62%29.80 "HgN/A
10:00 PM54 °FPassing clouds.8 mph58%29.83 "HgN/A
9:30 PM54 °FClear.13 mph58%29.80 "Hg10 mi
9:00 PM54 °FClear.10 mph58%29.80 "Hg10 mi
8:30 PM55 °FClear.13 mph59%29.83 "Hg10 mi
8:00 PM55 °FClear.13 mph59%29.83 "Hg10 mi
7:30 PM55 °FClear.13 mph59%29.83 "Hg10 mi
7:00 PM55 °FClear.8 mph63%29.83 "Hg10 mi
6:30 PM54 °FPassing clouds.10 mph67%29.83 "HgN/A
6:00 PM52 °FSunny.13 mph72%29.83 "Hg10 mi
5:30 PM54 °FSunny.13 mph72%29.83 "Hg10 mi
5:00 PM54 °FOvercast.8 mph77%29.83 "HgN/A
4:30 PM54 °FOvercast.8 mph77%29.83 "HgN/A
4:00 PM52 °FOvercast.10 mph82%29.86 "HgN/A
Weather by CustomWeather, © 2015

See weather overviewHow to use our weather pages